www.pogodaiklimat.ru

Погода и климат >> Архив погоды >> Россия >> Хабаровский край >> Литке


АРХИВ ПОГОДЫ в Литке

Время (UTC), дата Ветер
(напр.,м/с)
 
Видим.   Явления Облачность Т
(С)
Тd
(С)
f
(%)
Тe
(С)
Тes
(С)
Комфортность P
(гПа)
Po
(гПа)
Тmin
(С)
Tmax
(С)
R
(мм)
R24
(мм)
S
(см)
21 16.05 Ю 6 50 км 10/0
[As trans]
+2.0 +0.9 92 -4 -4 1009.2 1006.5 +1.0
00 17.05 Ю 2 50 км 10/0
[As trans]
+6.0 +2.6 79 +4 +4 1011.6 1009.3
03 17.05 Ю 2 50 км 10/0
[As trans]
+7.7 +3.2 73 +6 +6 1010.3 1008.0
06 17.05 Ю 2 50 км 10/0
[As trans]
+9.7 +4.7 71 +8 +8 1009.0 1006.7
09 17.05 Ю 2 50 км 10/0
[As trans]
+6.6 +3.6 81 +4 +4 1006.3 1004.0 +10.0
12 17.05 Ю 6 50 км 10/0
[As trans]
+4.4 +3.1 91 -1 -1 1006.3 1004.0
15 17.05 штиль 0 50 км 10/0
[As trans]
+1.5 +0.3 92 0 0 1006.4 1004.0
18 17.05 штиль 0 50 км 10/0
[As trans]
+0.6 -0.8 90 -1 -1 1006.4 1004.0
21 17.05 Ю 2 50 км 10/0
[As trans]
+0.5 -0.7 92 -3 -2 1007.7 1004.9 +0.4
00 18.05 Ю 2 50 км 10/0
[As trans]
+0.7 -0.4 92 -3 -3 1006.4 1004.0
03 18.05 штиль 0 500 м слаб. дождь {туман} туман ?/? +0.6 -0.5 92 -1 -5 1003.7 1001.3
06 18.05 штиль 0 20 км {дождь, туман} 10/0
[As trans]
+1.3 +0.1 92 0 0 1002.4 1000.0
09 18.05 С 4 50 км 10/0
[As trans]
+0.6 -0.7 91 -5 -5 1003.7 1001.3 +4.0 2
12 18.05 Ю 2 500 м туман ?/? +0.3 -0.8 92 -3 -3 1005.1 1002.7
15 18.05 Ю 6 500 м слаб. дождь {туман} туман ?/? +0.4 -0.6 93 -6 -6 1002.4 1000.0
18 18.05 штиль 0 500 м слаб. дождь {туман} туман ?/? +0.4 -0.6 93 -1 -1 1001.1 998.7
21 18.05 штиль 0 500 м туман {дождь} ?/? +0.8 -0.3 92 -0 -0 1000.2 997.5 +0.1 5
00 19.05 штиль 0 50 км {дождь, туман} 10/10 600 м
[Sc]
+7.4 +6.3 93 +6 +6 1000.3 997.6
03 19.05 СЗ 2 50 км 8/8 600 м
[Sc]
+14.5 +3.9 49 +14 +19 1002.3 1000.0
06 19.05 С 2 50 км 8/8 600 м
[Sc]
+9.9 +2.5 60 +9 +11 1003.6 1001.3
09 19.05 штиль 0 50 км 6/6 600 м
[Sc]
+14.7 +2.6 44 +15 +15 1005.0 1002.7 +15.7
12 19.05 штиль 0 50 км 1/1 600 м
[Sc]
+4.7 +0.7 75 +4 +4 1006.3 1004.0
15 19.05 штиль 0 50 км ясно +5.9 +4.1 88 +5 +5 1006.3 1004.0
18 19.05 штиль 0 50 км ясно +6.5 +3.7 82 +6 +6 1006.3 1004.0
21 19.05 штиль 0 50 км ясно +8.7 +3.0 67 +8 +12 1007.2 1004.5 +3.8
00 20.05 штиль 0 50 км 10/0
[As trans]
+11.1 +2.9 57 +11 +11 1007.6 1005.3
03 20.05 штиль 0 50 км 10/0
[As trans]
+7.4 +2.1 69 +7 +7 1009.0 1006.7
06 20.05 штиль 0 50 км 10/0
[As trans]
+6.6 +1.5 70 +6 +6 1007.6 1005.3
09 20.05 штиль 0 50 км 10/0
[As trans]
+5.6 +2.4 80 +5 +5 1007.6 1005.3 +11.4
12 20.05 С 2 50 км {морось} 10/10 300 м
[St]
+4.1 +2.5 89 +1 +1 1006.3 1003.6
15 20.05 С 2 50 км 10/10 300 м
[St]
+2.9 +1.6 91 -0 -0 1005.1 1002.7
18 20.05 штиль 0 50 км 10/10 300 м
[St]
+3.0 +1.8 92 +2 +2 1003.7 1001.3
21 20.05 штиль 0 10 км 10/10 300 м
[St]
+3.2 +2.0 92 +2 +2 1003.6 1001.3 +2.3 0.0
00 21.05 штиль 0 20 км 10/10 300 м
[St]
+3.2 +2.0 92 +2 +2 999.6 997.3
03 21.05 С 2 500 м слаб. дождь {туман} туман ?/? +5.7 +4.7 93 +3 +3 999.6 997.3
06 21.05 Ю 4 500 м туман {дождь} ?/? +4.5 +4.4 99 -0 999.6 997.3
09 21.05 ЮВ 5 500 м туман ?/? +3.1 +2.1 93 -2 -2 999.6 997.3 +6.1 4
12 21.05 Ю 4 500 м слаб. дождь {туман} туман ?/? +2.6 +1.6 93 -2 -2 998.5 995.8
15 21.05 Ю 4 500 м слаб. дождь {туман} туман ?/? +1.9 +0.7 92 -3 -3 997.0 994.7
18 21.05 ЮВ 2 500 м туман н/о +1.3 +0.1 92 -2 995.6 993.3
21 21.05 штиль 0 500 м туман ?/? +0.1 -0.9 93 -1 -1 993.7 991.0 +0.1 4
00 22.05 штиль 0 50 км {туман} 10/0
[As trans]
+1.0 -0.1 92 -0 +6 994.4 991.7
03 22.05 С 2 50 км 7 баллов +3.6 +1.3 85 +1 +5 995.6 993.3
06 22.05 штиль 0 50 км 10 баллов +2.3 -0.3 83 +1 +1 998.3 996.0
09 22.05 С 2 50 км 10/10 300 м
[St]
+1.9 +0.3 89 -1 -1 1001.1 998.7 +4.9
12 22.05 С 2 500 м туман н/о +2.1 +0.9 92 -1 1002.4 1000.0
15 22.05 С 2 500 м туман н/о +2.1 +0.9 92 -1 1002.4 1000.0
18 22.05 штиль 0 500 м туман н/о +2.1 -0.3 84 +1 1001.1 998.7
21 22.05 С 2 50 км {туман} 10/10 600 м
[Sc]
+1.8 -0.1 87 -2 -2 1000.8 998.1 +1.1
00 23.05 С 2 50 км {туман} 10/10 600 м
[Sc]
+3.4 +0.9 84 0 0 999.8 997.1
03 23.05 С 4 50 км 7 баллов +4.0 +0.7 79 -0 +3 1001.0 998.7
06 23.05 С 4 50 км 10 баллов +1.9 -0.8 82 -3 -3 1001.1 998.7
09 23.05 С 2 50 км 10/10 600 м
[Sc]
+1.3 -0.8 86 -2 -2 1002.4 1000.0 +4.1
12 23.05 штиль 0 50 км 10 баллов +1.2 -0.4 89 0 0 1002.4 1000.0
15 23.05 штиль 0 50 км ясно +1.3 -0.2 90 0 0 1001.1 998.7

 

Местоположение метеостанции Литке (Хабаровский край, Россия): широта 53.95 долгота 140.30 высота над уровнем моря 19 м.

В архиве по умолчанию представлена погода в Литке за последнюю неделю. Архивные данные за месяц целиком и за предыдущие месяцы, начиная с января 2011 года, Вы можете получить, выбрав интересующий диапазон дат из раскрывающегося списка и нажав кнопку "Ввод!".


*Определитесь, кто Вы:
робот инопланетянин человек

Внимание! Время в таблицах - всемирное. Для получения местного времени необходимо прибавить поправку, которая равна 10 ч.

Смотрите также архив погоды в соседних городах и на ближайших метеорологических станциях:

Погода в Николаевск-на-Амуре (Хабаровский край, Россия) (93 км)
Погода в Байдукове (Хабаровский край, Россия) (102 км)
Погода в Москальво (Сахалинская область, Россия) (151 км)
Погода в Удинске (Хабаровский край, Россия) (152 км)
Погода в Джаоре (Хабаровский край, Россия) (154 км)
Погода в Ныврово (Сахалинская область, Россия) (156 км)
Погода в Богородском (Хабаровский край, Россия) (175 км)
Погода в Оха (Сахалинская область, Россия) (178 км)
Погода в Одопту (Сахалинская область, Россия) (201 км)
Погода в Большом Шантаре (Хабаровский край, Россия) (206 км)

Пояснения к столбцам:

Ветер - указаны скорость ветра в м/с - средняя за 10 мин, порывы в срок и между сроками (в фигурных скобках) и направление, откуда дует ветер: С - северный, СВ - северо-восточный, В - восточный, ЮВ - юго-восточный, Ю - южный, ЮЗ - юго-западный, З - западный, СЗ - северо-западный.
Видимость - горизонтальная дальность видимости в метрах или километрах. При видимости от 1 до 10 км при отсутствии осадков обычно наблюдается дымка, при ухудшении видимости до 1 км и менее - туман. В сухую погоду видимость может ухудшаться дымом, пылью или мглою.
Явления - указаны атмосферные явления, наблюдавшиеся в срок или в последний час перед сроком; фигурными скобками обозначены явления, наблюдавшиеся между сроками (за 1-3 часа до срока); квадратными скобками обозначены град или гололедные отложения с указанием их диаметра в мм.
Облачность - указаны через наклонную черту общая и нижняя облачность в баллах и высота нижней границы облаков в метрах; квадратными скобками обозначены формы облаков: Ci - перистые, Cs - перисто-слоистые, Cc - перисто-кучевые, Ac - высококучевые, As - высокослоистые, Sc - слоисто-кучевые, Ns - слоисто-дождевые, Cu - кучевые, Cb - кучево-дождевые. Подробнее классификацию облаков см. в Атласе облаков (PDF).
T - Температура воздуха - температура, измеренная на высоте 2 м над землей.
Td - Температура точки росы - температура, при понижении до которой содержащийся в воздухе водяной пар достигнет насыщения.
f - Относительная влажность воздуха - влажноcть воздуха, измеренная на высоте 2 м над землей.
Te - Эффективная температура - температура, которую ощущает одетый по сезону человек в тени. Характеристика душности погоды. При расчете учитывается влияние влажности воздуха и скорости ветра на теплоощущения человека.
Tes - Эффективная температура на солнце - температура, которую ощущает человек, с поправкой на солнечный нагрев. Характеристика знойности погоды. Зависит от высоты солнца над горизонтом, облачности и скорости ветра. Ночью, в пасмурную погоду, а также при ветре 12 м/с и более поправка равна нулю.
P - Атмосферное давление - приведенное к уровню моря атмосферное давление.
Po - Атмосферное давление - измеренное на уровне метеостанции атмосферное давление.
Tmin - Минимальная температура - минимум температуры воздуха на высоте 2 м над землей.
Tmax - Максимальная температура - максимум температуры воздуха на высоте 2 м над землей.
R - Количество осадков - Количество выпавших осадков за период времени, мм. При наведении курсора мыши на число - период времени, за который выпало указанное количество осадков.
R24 - Количество осадков - Количество выпавших осадков за 24 часа, мм.
S - Снежный покров - Высота снежного покрова, см. При наведении курсора мыши на число - состояние снежного покрова и степень покрытия местности в баллах.